Total_Precipitation_Accumulation
1.21 1.24 1.40 1.20 0.94 0.64 0.62 0.64 1.05 1.43 1.31 1.14 1.05 0.78 0.77 0.52 0.42 0.46 0.27 0.32 0.47 0.25 0.01 0.00 0.00 0.08 0.38 0.35 0.27 0.34 0.44 0.34 0.43 0.46 0.32 0.14 0.04 0.01 0.00 0.00 0.00 0.04 0.08 0.09 0.14 0.18 0.02 0.00 0.00 0.01 0.01 0.00 0.00 0.01
1.02 1.06 1.06 1.04 1.10 1.21 0.82 0.78 1.06 1.25 1.07 0.88 0.69 0.56 0.58 0.46 0.37 0.46 0.36 0.23 0.35 0.22 0.04 0.00 0.00 0.01 0.20 0.33 0.37 0.34 0.39 0.31 0.40 0.40 0.26 0.11 0.04 0.02 0.01 0.01 0.00 0.00 0.01 0.00 0.00 0.00 0.00 0.00 0.00 0.00 0.00 0.00 0.00 0.00
1.21 1.08 0.99 0.88 0.68 0.80 1.27 1.42 1.28 1.15 0.83 0.66 0.49 0.42 0.46 0.43 0.31 0.43 0.33 0.23 0.28 0.23 0.07 0.02 0.02 0.00 0.08 0.20 0.35 0.35 0.35 0.30 0.39 0.29 0.36 0.20 0.07 0.02 0.01 0.00 0.00 0.00 0.00 0.00 0.00 0.00 0.00 0.00 0.00 0.00 0.00 0.00 0.00 0.00
1.32 1.04 0.88 0.95 0.93 0.59 0.76 1.37 1.41 1.14 0.80 0.51 0.32 0.34 0.26 0.30 0.35 0.37 0.17 0.15 0.24 0.34 0.22 0.06 0.03 0.01 0.04 0.19 0.29 0.32 0.44 0.36 0.37 0.48 0.46 0.37 0.15 0.05 0.01 0.00 0.00 0.00 0.00 0.00 0.00 0.00 0.00 0.00 0.00 0.00 0.00 0.00 0.00 0.00
1.28 1.36 1.00 0.74 0.88 1.07 0.80 0.89 0.85 0.82 0.70 0.35 0.24 0.30 0.29 0.31 0.37 0.20 0.06 0.14 0.19 0.41 0.45 0.23 0.08 0.02 0.01 0.16 0.33 0.37 0.50 0.71 0.65 0.73 0.54 0.25 0.14 0.06 0.02 0.00 0.00 0.00 0.00 0.00 0.00 0.00 0.00 0.00 0.00 0.00 0.00 0.00 0.00 0.00
1.05 1.15 1.47 1.05 0.71 0.79 1.09 0.87 0.84 0.69 0.49 0.24 0.25 0.34 0.37 0.30 0.46 0.34 0.44 0.39 0.27 0.34 0.65 0.54 0.33 0.15 0.06 0.16 0.37 0.52 0.51 0.56 0.84 0.83 0.58 0.33 0.13 0.21 0.18 0.03 0.00 0.00 0.00 0.00 0.00 0.00 0.00 0.00 0.00 0.00 0.00 0.00 0.00 0.00
0.88 0.88 1.14 1.42 1.01 0.82 1.16 0.83 0.78 0.68 0.48 0.28 0.33 0.36 0.30 0.28 0.36 0.38 0.31 0.39 0.43 0.45 0.66 0.66 0.78 0.40 0.21 0.31 0.57 0.64 0.66 0.72 0.79 1.04 0.59 0.34 0.23 0.38 0.33 0.07 0.00 0.00 0.00 0.00 0.00 0.00 0.00 0.00 0.00 0.00 0.00 0.00 0.00 0.00
0.94 0.83 0.87 1.17 1.12 1.02 1.16 0.92 0.66 0.60 0.47 0.33 0.36 0.30 0.34 0.47 0.38 0.22 0.06 0.24 0.49 0.60 0.62 0.71 0.84 0.54 0.44 0.46 0.69 0.74 0.67 0.69 0.78 0.90 0.51 0.28 0.34 0.43 0.21 0.00 0.00 0.01 0.01 0.01 0.01 0.01 0.00 0.00 0.00 0.01 0.02 0.01 0.00 0.00
1.05 0.89 0.88 1.10 0.94 0.98 1.06 1.07 0.63 0.47 0.44 0.43 0.45 0.47 0.69 0.58 0.23 0.15 0.20 0.26 0.36 0.62 0.67 0.44 0.40 0.45 0.48 0.35 0.50 0.49 0.64 0.71 0.68 0.45 0.50 0.44 0.30 0.27 0.11 0.02 0.00 0.00 0.00 0.00 0.00 0.00 0.00 0.00 0.00 0.00 0.00 0.01 0.02 0.04
1.09 0.94 0.84 1.12 0.76 0.75 0.88 0.90 0.58 0.37 0.44 0.70 0.89 0.87 0.72 0.37 0.32 0.70 0.93 0.75 0.78 0.49 0.40 0.26 0.27 0.21 0.45 0.31 0.46 0.54 0.33 0.39 0.36 0.17 0.27 0.40 0.22 0.09 0.06 0.01 0.00 0.00 0.00 0.01 0.01 0.00 0.01 0.02 0.02 0.01 0.02 0.01 0.02 0.03
1.00 0.99 0.81 1.15 0.65 0.63 0.68 0.68 0.59 0.51 0.77 1.29 1.27 0.81 0.46 0.48 1.14 1.39 1.21 0.63 0.55 0.33 0.10 0.11 0.26 0.22 0.25 0.32 0.46 0.44 0.44 0.29 0.20 0.12 0.23 0.32 0.16 0.09 0.06 0.03 0.01 0.00 0.01 0.01 0.01 0.03 0.05 0.05 0.05 0.04 0.05 0.06 0.05 0.04
0.98 0.88 0.81 1.09 0.57 0.47 0.47 0.54 0.60 0.87 1.34 1.29 0.94 0.94 1.25 1.43 1.67 1.27 0.80 0.34 0.18 0.08 0.14 0.15 0.13 0.23 0.24 0.29 0.40 0.43 0.31 0.31 0.15 0.15 0.21 0.08 0.03 0.01 0.02 0.05 0.08 0.07 0.05 0.04 0.03 0.03 0.07 0.16 0.20 0.19 0.16 0.13 0.10 0.08
1.09 0.75 0.78 1.01 0.55 0.41 0.42 0.47 0.45 0.84 1.00 1.06 1.11 1.43 1.40 1.24 1.10 0.57 0.29 0.15 0.15 0.12 0.16 0.13 0.08 0.10 0.13 0.24 0.21 0.25 0.24 0.10 0.06 0.10 0.06 0.00 0.00 0.00 0.00 0.00 0.01 0.03 0.04 0.13 0.23 0.29 0.24 0.20 0.15 0.18 0.27 0.23 0.19 0.13
1.12 0.75 0.85 1.01 0.62 0.54 0.60 0.47 0.58 0.93 1.24 1.52 1.43 1.35 0.77 0.54 0.27 0.13 0.11 0.11 0.07 0.06 0.07 0.10 0.15 0.10 0.08 0.16 0.16 0.16 0.08 0.09 0.12 0.05 0.00 0.00 0.00 0.01 0.01 0.02 0.02 0.00 0.00 0.06 0.08 0.15 0.21 0.23 0.23 0.21 0.21 0.22 0.20 0.20
1.09 0.95 1.26 1.22 0.90 0.83 0.67 0.49 0.67 1.00 1.16 1.11 0.91 0.68 0.32 0.22 0.10 0.12 0.11 0.06 0.06 0.07 0.06 0.06 0.12 0.13 0.14 0.18 0.14 0.15 0.16 0.08 0.01 0.00 0.01 0.01 0.03 0.04 0.04 0.03 0.01 0.00 0.00 0.03 0.02 0.10 0.18 0.05 0.04 0.12 0.21 0.24 0.16 0.12
1.32 1.54 1.73 1.43 1.22 1.08 0.90 0.63 0.61 0.56 0.72 0.78 0.62 0.42 0.16 0.06 0.05 0.06 0.07 0.07 0.06 0.09 0.10 0.13 0.20 0.15 0.14 0.16 0.18 0.08 0.10 0.03 0.05 0.06 0.11 0.13 0.12 0.09 0.03 0.00 0.00 0.00 0.00 0.04 0.16 0.31 0.18 0.03 0.01 0.02 0.06 0.19 0.18 0.17
1.59 1.82 1.59 1.18 1.21 1.22 0.90 0.77 0.72 0.69 0.81 0.76 0.35 0.12 0.11 0.04 0.02 0.03 0.02 0.00 0.02 0.10 0.24 0.42 0.45 0.16 0.13 0.22 0.04 0.01 0.04 0.04 0.12 0.17 0.15 0.10 0.06 0.01 0.00 0.00 0.00 0.01 0.03 0.02 0.05 0.16 0.18 0.12 0.04 0.02 0.03 0.02 0.02 0.03
1.04 1.01 1.07 1.29 1.52 1.33 1.22 0.98 0.82 0.83 0.70 0.45 0.12 0.05 0.02 0.01 0.01 0.03 0.03 0.03 0.06 0.11 0.18 0.45 0.32 0.22 0.10 0.04 0.00 0.01 0.01 0.01 0.02 0.01 0.00 0.00 0.00 0.00 0.00 0.00 0.00 0.00 0.01 0.01 0.04 0.06 0.05 0.03 0.02 0.03 0.05 0.05 0.05 0.03
0.75 0.74 0.94 1.04 0.77 0.77 0.90 0.88 0.59 0.47 0.35 0.16 0.05 0.03 0.03 0.02 0.02 0.02 0.03 0.05 0.08 0.15 0.27 0.31 0.21 0.09 0.00 0.00 0.00 0.01 0.01 0.00 0.00 0.00 0.00 0.00 0.00 0.00 0.00 0.00 0.00 0.00 0.00 0.00 0.00 0.01 0.00 0.01 0.00 0.01 0.01 0.01 0.01 0.01
0.93 0.99 0.85 0.55 0.33 0.48 0.46 0.61 0.34 0.27 0.20 0.11 0.08 0.08 0.04 0.05 0.06 0.04 0.06 0.07 0.12 0.29 0.37 0.26 0.08 0.02 0.03 0.03 0.03 0.02 0.00 0.00 0.00 0.00 0.00 0.00 0.00 0.00 0.00 0.00 0.00 0.00 0.00 0.00 0.00 0.00 0.00 0.00 0.00 0.00 0.00 0.00 0.00 0.01
2.06 2.03 1.70 1.30 1.13 0.64 0.38 0.28 0.21 0.22 0.18 0.14 0.16 0.19 0.16 0.11 0.18 0.20 0.24 0.31 0.52 0.59 0.35 0.15 0.07 0.06 0.06 0.06 0.05 0.03 0.01 0.00 0.00 0.00 0.00 0.00 0.00 0.00 0.00 0.00 0.00 0.00 0.00 0.00 0.00 0.00 0.00 0.00 0.00 0.00 0.00 0.00 0.01 0.02
2.56 2.32 2.03 1.52 1.02 0.68 0.42 0.29 0.22 0.19 0.19 0.17 0.20 0.22 0.27 0.26 0.29 0.42 0.59 0.70 0.68 0.39 0.16 0.09 0.12 0.10 0.07 0.06 0.06 0.05 0.04 0.01 0.00 0.00 0.00 0.00 0.00 0.00 0.00 0.00 0.00 0.00 0.00 0.00 0.00 0.00 0.00 0.00 0.00 0.00 0.00 0.00 0.00 0.00
1.70 1.53 1.38 1.08 0.86 0.64 0.64 0.31 0.25 0.20 0.21 0.20 0.21 0.24 0.26 0.29 0.42 0.53 0.66 0.60 0.39 0.22 0.18 0.19 0.20 0.16 0.13 0.07 0.07 0.04 0.05 0.06 0.03 0.01 0.00 0.00 0.00 0.00 0.00 0.00 0.00 0.00 0.00 0.00 0.00 0.00 0.00 0.00 0.00 0.00 0.00 0.00 0.00 0.00
1.28 1.77 1.61 1.20 0.83 0.69 0.56 0.33 0.22 0.16 0.15 0.17 0.22 0.21 0.22 0.28 0.38 0.45 0.35 0.16 0.14 0.20 0.27 0.31 0.28 0.19 0.15 0.13 0.12 0.12 0.10 0.09 0.08 0.07 0.04 0.02 0.00 0.00 0.00 0.00 0.00 0.00 0.00 0.00 0.00 0.00 0.00 0.00 0.00 0.00 0.00 0.00 0.01 0.00
1.95 2.03 1.39 1.10 0.64 0.25 0.20 0.18 0.16 0.12 0.12 0.13 0.21 0.24 0.25 0.31 0.34 0.27 0.16 0.12 0.19 0.28 0.31 0.27 0.23 0.20 0.15 0.13 0.13 0.13 0.15 0.17 0.13 0.12 0.15 0.14 0.07 0.03 0.02 0.01 0.00 0.00 0.00 0.00 0.00 0.00 0.00 0.00 0.00 0.00 0.00 0.00 0.00 0.01
1.42 1.16 0.72 0.36 0.24 0.09 0.09 0.10 0.11 0.09 0.11 0.18 0.23 0.21 0.27 0.29 0.26 0.22 0.11 0.13 0.24 0.35 0.37 0.31 0.22 0.17 0.16 0.16 0.14 0.15 0.11 0.15 0.17 0.19 0.24 0.27 0.24 0.19 0.11 0.05 0.03 0.01 0.00 0.01 0.02 0.02 0.02 0.01 0.01 0.01 0.02 0.03 0.06 0.09
0.73 0.44 0.25 0.08 0.02 0.02 0.04 0.05 0.04 0.05 0.16 0.22 0.16 0.16 0.21 0.25 0.23 0.14 0.11 0.17 0.26 0.35 0.44 0.43 0.28 0.20 0.17 0.19 0.21 0.23 0.22 0.22 0.20 0.17 0.23 0.32 0.31 0.26 0.25 0.18 0.10 0.06 0.04 0.06 0.05 0.05 0.05 0.05 0.05 0.05 0.08 0.10 0.11 0.11
0.29 0.11 0.07 0.06 0.03 0.02 0.04 0.07 0.10 0.13 0.12 0.09 0.10 0.14 0.16 0.13 0.09 0.10 0.14 0.22 0.32 0.38 0.45 0.48 0.38 0.30 0.27 0.26 0.28 0.30 0.32 0.31 0.33 0.33 0.37 0.41 0.42 0.38 0.31 0.32 0.35 0.31 0.24 0.20 0.17 0.18 0.18 0.15 0.14 0.13 0.13 0.12 0.11 0.13
0.17 0.17 0.09 0.08 0.09 0.12 0.11 0.08 0.09 0.07 0.02 0.02 0.05 0.07 0.05 0.04 0.08 0.12 0.18 0.27 0.35 0.40 0.42 0.42 0.42 0.38 0.35 0.34 0.38 0.45 0.44 0.38 0.30 0.29 0.21 0.22 0.28 0.40 0.44 0.39 0.46 0.50 0.43 0.42 0.38 0.32 0.28 0.27 0.26 0.24 0.22 0.21 0.18 0.19
0.19 0.14 0.11 0.10 0.10 0.13 0.10 0.05 0.04 0.04 0.03 0.03 0.01 0.01 0.02 0.05 0.11 0.16 0.22 0.28 0.35 0.41 0.45 0.46 0.42 0.42 0.41 0.40 0.41 0.42 0.43 0.42 0.37 0.22 0.16 0.15 0.20 0.31 0.42 0.45 0.45 0.46 0.49 0.45 0.44 0.47 0.47 0.47 0.46 0.43 0.37 0.33 0.29 0.25
0.16 0.12 0.10 0.12 0.16 0.16 0.15 0.14 0.12 0.09 0.07 0.04 0.03 0.02 0.02 0.05 0.11 0.16 0.21 0.25 0.31 0.36 0.41 0.44 0.44 0.46 0.43 0.44 0.42 0.37 0.34 0.37 0.40 0.39 0.32 0.34 0.39 0.40 0.43 0.46 0.47 0.48 0.48 0.45 0.41 0.37 0.33 0.29 0.25 0.24 0.25 0.25 0.23 0.21
0.20 0.17 0.09 0.12 0.20 0.23 0.21 0.18 0.14 0.10 0.06 0.02 0.01 0.03 0.03 0.03 0.06 0.10 0.15 0.20 0.24 0.29 0.34 0.36 0.33 0.34 0.37 0.36 0.36 0.39 0.34 0.32 0.36 0.42 0.41 0.39 0.39 0.36 0.36 0.40 0.45 0.48 0.50 0.48 0.42 0.39 0.37 0.38 0.40 0.38 0.36 0.33 0.30 0.28
0.24 0.19 0.16 0.14 0.16 0.16 0.11 0.10 0.10 0.08 0.03 0.00 0.00 0.01 0.02 0.02 0.03 0.05 0.08 0.13 0.18 0.23 0.25 0.28 0.31 0.31 0.32 0.32 0.31 0.34 0.39 0.40 0.41 0.44 0.47 0.43 0.39 0.40 0.41 0.43 0.44 0.44 0.44 0.44 0.44 0.49 0.53 0.52 0.47 0.42 0.40 0.36 0.32 0.30